{"data":{"norad_id":45540,"epoch":"2026-05-25T03:44:51.722880Z","epoch_age_seconds":57461,"freshness":"FRESH","line1":"1 45540U 20025K   26145.15615420  .00043256  00000+0  12238-2 0  9996","line2":"2 45540  53.1561 104.8014 0004805  72.0302 288.1225 15.35900884336890","mean_motion":15.35900884,"eccentricity":0.0004805,"inclination_deg":53.1561,"raan_deg":104.8014,"arg_perigee_deg":72.0302,"mean_anomaly_deg":288.1225,"bstar":0.0012238,"rev_number":33689,"period_min":93.756049950942,"perigee_km":454.96104775799,"apogee_km":461.53081175349,"semimajor_km":6836.3829297557,"source":"CELESTRAK","updated_at":"2026-05-25T13:38:16.421705Z"}}